Regional Weather Roundup
Issued by NWS

Home | Current Version | Previous Version | Text Only | Print | Product List | Glossary Off
Versions: 1 2 3 4 5 6 7 8 9 10 11 12 13 14 15 16 17 18 19 20 21 22 23 24 25 26 27 28 29 30 31 32 33 34 35 36 37 38 39 40 41 42 43 44 45 46 47 48 49 50

728
ASUS44 KJAN 282010
RWRMS

MISSISSIPPI HOURLY WEATHER ROUNDUP
NATIONAL WEATHER SERVICE JACKSON MS
200 PM CST WED JAN 28 2015

NOTE: "FAIR: INDICATES FEW OR NO CLOUDS BELOW 12,000 FEET WITH NO
SIGNIFICANT WEATHER AND/OR OBSTRUCTIONS TO VISIBILITY.

MSZ001>002-007>008-010>013-018>021-025>028-034>036-282100-
NORTHWEST MISSISSIPPI

CITY           SKY/WX    TMP DP  RH WIND       PRES   REMARKS
CLARKSDALE     FAIR      57  39  51 SE10      30.20F
CLEVELAND      FAIR      59  40  48 S13       30.19F
GREENWOOD      SUNNY     63  35  35 S8        30.20F
GREENVILLE     SUNNY     61  39  44 S9        30.18F
GRENADA        FAIR      59  32  36 E6        30.22F
OLIVE BRANCH   MOSUNNY   55  32  41 SE8       30.20F
OXFORD         FAIR      57  28  33 SE10      30.22F
TUNICA         CLEAR     59  34  38 SE9       30.19F
$$

MSZ003>006-009-014>017-022>024-029>033-037>039-282100-
NORTHEAST MISSISSIPPI

CITY           SKY/WX    TMP DP  RH WIND       PRES   REMARKS
COLUMBUS AFB   SUNNY     55  27  34 VRB2      30.25F
CORINTH        FAIR      55  28  35 SE6       30.23F
GOLDN TRIANGLE SUNNY     55  32  41 CALM      30.25F
STARKVILLE     FAIR      55  30  38 CALM      30.24F
TUPELO         SUNNY     54  31  41 SW8       30.24F
$$

MSZ040-058-282100-
CENTRAL MISSISSIPPI

CITY           SKY/WX    TMP DP  RH WIND       PRES   REMARKS
JACKSON INTL   SUNNY     66  32  28 SE7       30.21F
JACKSON HAWKNS SUNNY     66  31  27 MISG      30.21F
MERIDIAN KEY   SUNNY     62  25  24 NE6       30.23F
MERIDIAN NAS   SUNNY     62  25  24 NE3       30.24F
RAYMOND        FAIR      68  64  88 SE8       30.20F
VICKSBURG      SUNNY     68  36  30 SE8       30.19F
$$

MSZ059>079-282100-
SOUTH MISSISSIPPI

CITY           SKY/WX    TMP DP  RH WIND       PRES   REMARKS
BROOKHAVEN     FAIR      68  36  30 S6        30.23F
HATTIESBURG    SUNNY     65  32  29 CALM      30.24F
MCCOMB         SUNNY     68  37  32 CALM      30.22F
NATCHEZ        SUNNY     72  37  28 S8        30.19F
PINE BELT      SUNNY     63  30  29 CALM      30.25S
$$

MSZ080>082-282100-
COASTAL MISSISSIPPI

CITY           SKY/WX    TMP DP  RH WIND       PRES   REMARKS
BAY ST LOUIS   SUNNY     63  36  36 S8        30.25F
BILOXI         SUNNY     59  41  51 S8        30.24F
PASCAGOULA     SUNNY     67  25  20 N6        30.23F
GULFPORT       SUNNY     59  40  49 SE8       30.23F
$$



USA.gov is the U.S. government's official web portal to all federal, state and local government web resources and services.